www.pogodaiklimat.ru

Погода и климат >> Архив погоды >> Россия >> Северная Осетия >> Владикавказ


АРХИВ ПОГОДЫ в Владикавказе

Время (UTC), дата Ветер
(напр.,м/с)
 
Видим.   Явления Облачность Т
(С)
Тd
(С)
f
(%)
Тe
(С)
Тes
(С)
Комфортность P
(гПа)
Po
(гПа)
Тmin
(С)
Tmax
(С)
R
(мм)
R24
(мм)
S
(см)
18 9.06 ЮВ 1 10 км 4/4 600 м
[Sc]
+20.6 +12.7 61 +24 +24 комфорт 1017.8 938.8
21 9.06 штиль 0 10 км 3/3 600 м
[Sc]
+17.8 +12.8 73 +18 +18 тепло 1017.7 938.0
00 10.06 Ю 1 10 км ясно +16.1 +11.9 76 +17 +17 тепло 1017.9 937.6
03 10.06 Ю 1 50 км 3/0
[Ci fib]
+18.8 +12.1 65 +21 +22 комфорт 1017.2 937.7 +15.8
06 10.06 СЗ 1 50 км 6/0
[Ci]
+23.6 +13.2 52 +26 +38 жарко 1015.4 937.3
09 10.06 С 1 20 км 4/3 1000 м
[Sc Ac As Cs]
+26.8 +12.8 42 +28 +43 жарко 1013.9 936.7
12 10.06 СЗ 2 20 км 4/1 1000 м
[Sc Ac trans Cs]
+27.9 +11.9 37 +29 +38 жарко 1012.3 935.5
15 10.06 В 2 20 км 8/0
[Ac As Ci fib]
+26.3 +12.6 43 +28 +29 жарко 1012.2 935.0 +28.9
18 10.06 ЮВ 1 10 км 3/0
[Ac trans]
+21.0 +15.1 69 +25 +25 комфорт 1014.1 935.5
21 10.06 Ю 1 10 км ясно +18.8 +13.5 71 +21 +21 комфорт 1013.1 934.0
00 11.06 Ю 1 10 км ясно +16.6 +12.8 78 +17 +17 тепло 1012.2 932.5
03 11.06 ЮВ 1 50 км 3/0
[Ci fib]
+18.2 +13.1 72 +20 +21 тепло 1012.3 933.0 +15.7
06 11.06 штиль 0 50 км 3/0
[Ac lent Ci fib]
+24.2 +10.4 42 +25 +40 комфорт 1010.4 932.8
09 11.06 С 2 50 км 3/0
[Ac trans Cs]
+27.2 +13.4 43 +29 +47 жарко 1008.6 931.9
12 11.06 С 2 50 км 3/0
[Ac lent]
+29.0 +12.2 35 +30 +39 жарко 1007.0 930.9
15 11.06 З 2 20 км 9/0
[Ac cast Cs]
+27.3 +14.7 46 +30 +31 душно 1007.1 930.6 +29.9
18 11.06 Ю 1 10 км 5/0
[Ac trans Cs]
+21.7 +16.2 71 +25 +25 комфорт 1009.2 931.2
21 11.06 Ю 1 10 км 5/0
[Ac trans]
+19.5 +14.9 75 +22 +22 комфорт 1009.0 930.4
00 12.06 Ю 1 10 км 10/0
[Ac As]
+18.4 +14.3 77 +20 +20 тепло 1008.8 929.9
03 12.06 штиль 0 20 км 3/0
[Ac trans]
+20.3 +14.5 69 +22 +24 комфорт 1009.0 930.6 +17.2
06 12.06 С 1 20 км 8/0
[Ac As]
+23.7 +15.2 59 +27 +33 жарко 1008.2 930.7
09 12.06 СЗ 2 20 км 9/4 600 м
[Cu Sc Ac As Ci]
+25.8 +15.8 54 +29 +36 душно 1006.9 930.0
12 12.06 В 2 10 км гроза, ливневой дождь 10/10 600 м
[Cb cap]
+20.3 +15.3 73 +24 +24 комфорт 1009.0 930.6
15 12.06 Ю 4-11
{11}
10 км слаб. ливневой дождь, в посл. час гроза 10/10 600 м
[Cb cap]
+18.2 +14.0 76 +18 +18 по сезону 1009.9 930.9 +27.7 5
18 12.06 ЮВ 1 10 км {гроза, ливн. осадки} 10/10 600 м
[Sc diur, vesp]
+18.0 +13.7 76 +19 +19 тепло 1009.8 930.8
21 12.06 ЮВ 3 10 км 10/10 600 м
[Sc]
+17.6 +11.8 69 +18 +18 тепло 1009.7 930.5
00 13.06 Ю 2 10 км 10/6 600 м
[Sc Ac As]
+19.9 +9.7 52 +22 +22 комфорт 1007.5 929.0
03 13.06 штиль 0 20 км 10/8 600 м
[Sc Ac As]
+19.1 +12.8 67 +20 +20 тепло 1008.7 929.9 +17.5 0.2
06 13.06 СЗ 2 20 км 8/6 600 м
[Sc Ac und]
+21.8 +13.7 60 +25 +28 комфорт 1008.8 930.8
09 13.06 З 2 20 км 8/5 600 м
[Cu hum Ac und]
+25.5 +14.1 49 +28 +34 жарко 1008.3 931.3
12 13.06 С 2 20 км 8/8 600 м
[Cu med, cong]
+26.9 +13.6 44 +29 +31 жарко 1007.2 930.6
15 13.06 Ю 2 20 км слаб. ливневой дождь, в посл. час гроза 10/10 600 м
[Cb cap]
+16.6 +14.0 85 +17 +17 прохладно 1011.0 931.5 +28.1 3
18 13.06 Ю 1 10 км {гроза, ливн. осадки} 6/6 600 м
[Sc]
+18.0 +15.0 83 +19 +19 тепло 1012.8 933.5
21 13.06 Ю 1 10 км 8/4 600 м
[Sc Ac trans]
+17.0 +14.3 84 +18 +18 тепло 1013.8 934.2
00 14.06 Ю 2 10 км 4/4 600 м
[Sc]
+17.0 +12.5 75 +17 +17 тепло 1013.0 933.4
03 14.06 Ю 1 20 км 8/5 1000 м
[Sc Ac und]
+16.9 +11.6 71 +18 +18 по сезону 1013.8 934.1 +16.3 0.0
06 14.06 В 1 20 км 8/5 600 м
[Cu hum Ac trans]
+24.1 +12.3 48 +26 +31 жарко 1012.5 934.8
09 14.06 СВ 2 20 км 6/4 600 м
[Cu Sc Ac As]
+27.3 +12.2 39 +29 +38 жарко 1011.6 934.7
12 14.06 ЮВ 2 20 км 9/6 600 м
[Cb cap Ac As]
+22.9 +12.6 52 +26 +28 жарко 1013.6 935.5
15 14.06 Ю 1 20 км 9/6 1000 м
[Cu Sc Ac As]
+22.1 +12.4 54 +25 +25 комфорт 1014.0 935.6 +27.9
18 14.06 Ю 1 10 км 3/0
[Ac trans]
+19.1 +12.2 64 +21 +21 комфорт 1014.5 935.3
21 14.06 Ю 1 10 км 5/0
[Ac trans]
+17.2 +11.9 71 +18 +18 тепло 1014.7 935.0
00 15.06 штиль 0 10 км ясно +15.2 +11.3 78 +15 +15 по сезону 1014.7 934.4
03 15.06 Ю 1 50 км ясно +16.9 +11.4 70 +18 +20 по сезону 1014.2 934.4 +14.0
06 15.06 СЗ 2 50 км 3/1 1000 м
[Cu med, cong Ac trans]
+22.9 +13.5 55 +26 +36 жарко 1012.6 934.6
09 15.06 З 2 20 км 4/4 1000 м
[Cu hum]
+25.8 +15.3 52 +29 +40 душно 1010.7 933.6
12 15.06 СЗ 1 20 км 9/5 600 м
[Cb calv Ac und]
+25.6 +16.1 56 +29 +32 душно 1009.5 932.4
15 15.06 З 2 20 км 8/4 600 м
[Sc Ac trans]
+25.1 +16.1 57 +28 +29 жарко 1009.3 932.1 +26.5
18 15.06 Ю 1 20 км 8/8 600 м
[Sc]
+21.2 +16.9 76 +25 +25 комфорт 1010.8 932.6
21 15.06 Ю 1 10 км 10/10 600 м
[Sc]
+19.6 +15.9 79 +23 +23 комфорт 1011.1 932.4
00 16.06 Ю 1 10 км 8/8 600 м
[Sc]
+18.0 +14.8 82 +19 +19 тепло 1010.0 930.9
03 16.06 Ю 1 50 км ясно +19.1 +14.2 73 +21 +23 комфорт 1010.2 931.4 +16.7
06 16.06 В 1 50 км ясно +26.3 +14.9 49 +29 +43 жарко 1007.3 930.5
09 16.06 СВ 1 20 км 8/8 600 м
[Cu med, cong]
+28.2 +15.6 46 +31 +36 душно 1006.4 930.2
12 16.06 Ю 2 20 км 9/8 600 м
[Cb calv Ac As]
+26.0 +11.6 41 +27 +29 жарко 1006.4 929.5
15 16.06 Ю 1 20 км {гроза, ливн. осадки} 10/6 600 м
[Cb calv Ac As]
+18.8 +14.0 74 +21 +21 комфорт 1011.6 932.6 +30.7 7

 

Местоположение метеостанции Владикавказ (Северная Осетия, Россия): широта 43.03 долгота 44.68 высота над уровнем моря 703 м.

В архиве по умолчанию представлена погода в Владикавказе за последнюю неделю. Архивные данные за месяц целиком и за предыдущие месяцы, начиная с января 2011 года, Вы можете получить, выбрав интересующий диапазон дат из раскрывающегося списка и нажав кнопку "Ввод!".


*Определитесь, кто Вы:
робот инопланетянин человек

Внимание! Время в таблицах - всемирное. Для получения местного времени необходимо прибавить поправку, которая равна 3 ч.

Смотрите также архив погоды в соседних городах и на ближайших метеорологических станциях:

Погода в Назрани (Ингушетия, Россия) (19 км)
Погода в Алагире (Северная Осетия, Россия) (35 км)
Погода на Рокском Перевале (Северная Осетия, Россия) (66 км)
Погода в Наре (Северная Осетия, Россия) (68 км)
Погода в Пасанаури (Грузия) (76 км)
Погода в Моздоке (Северная Осетия, Россия) (78 км)
Погода в Шатое (Чечня, Россия) (83 км)
Погода в Наурской (Чечня, Россия) (86 км)
Погода в Грозном (Чечня, Россия) (88 км)
Погода в Прохладный (Кабардино-Балкария, Россия) (95 км)

Пояснения к столбцам:

Ветер - указаны скорость ветра в м/с - средняя за 10 мин, порывы в срок и между сроками (в фигурных скобках) и направление, откуда дует ветер: С - северный, СВ - северо-восточный, В - восточный, ЮВ - юго-восточный, Ю - южный, ЮЗ - юго-западный, З - западный, СЗ - северо-западный.
Видимость - горизонтальная дальность видимости в метрах или километрах. При видимости от 1 до 10 км при отсутствии осадков обычно наблюдается дымка, при ухудшении видимости до 1 км и менее - туман. В сухую погоду видимость может ухудшаться дымом, пылью или мглою.
Явления - указаны атмосферные явления, наблюдавшиеся в срок или в последний час перед сроком; фигурными скобками обозначены явления, наблюдавшиеся между сроками (за 1-3 часа до срока); квадратными скобками обозначены град или гололедные отложения с указанием их диаметра в мм.
Облачность - указаны через наклонную черту общая и нижняя облачность в баллах и высота нижней границы облаков в метрах; квадратными скобками обозначены формы облаков: Ci - перистые, Cs - перисто-слоистые, Cc - перисто-кучевые, Ac - высококучевые, As - высокослоистые, Sc - слоисто-кучевые, Ns - слоисто-дождевые, Cu - кучевые, Cb - кучево-дождевые. Подробнее классификацию облаков см. в Атласе облаков (PDF).
T - Температура воздуха - температура, измеренная на высоте 2 м над землей.
Td - Температура точки росы - температура, при понижении до которой содержащийся в воздухе водяной пар достигнет насыщения.
f - Относительная влажность воздуха - влажноcть воздуха, измеренная на высоте 2 м над землей.
Te - Эффективная температура - температура, которую ощущает одетый по сезону человек в тени. Характеристика душности погоды. При расчете учитывается влияние влажности воздуха и скорости ветра на теплоощущения человека.
Tes - Эффективная температура на солнце - температура, которую ощущает человек, с поправкой на солнечный нагрев. Характеристика знойности погоды. Зависит от высоты солнца над горизонтом, облачности и скорости ветра. Ночью, в пасмурную погоду, а также при ветре 12 м/с и более поправка равна нулю.
P - Атмосферное давление - приведенное к уровню моря атмосферное давление.
Po - Атмосферное давление - измеренное на уровне метеостанции атмосферное давление.
Tmin - Минимальная температура - минимум температуры воздуха на высоте 2 м над землей.
Tmax - Максимальная температура - максимум температуры воздуха на высоте 2 м над землей.
R - Количество осадков - Количество выпавших осадков за период времени, мм. При наведении курсора мыши на число - период времени, за который выпало указанное количество осадков.
R24 - Количество осадков - Количество выпавших осадков за 24 часа, мм.
S - Снежный покров - Высота снежного покрова, см. При наведении курсора мыши на число - состояние снежного покрова и степень покрытия местности в баллах.